TimeEDT,TemperatureF,Dew PointF,Humidity,Sea Level PressureIn,VisibilityMPH,Wind Direction,Wind SpeedMPH,Gust SpeedMPH,PrecipitationIn,Events,Conditions,WindDirDegrees,DateUTC
12:53 AM,61.0,42.1,50,29.80,10.0,West,3.5,-,N/A,,Clear,280,2013-05-16 04:53:00
1:53 AM,57.9,43.0,58,29.81,10.0,West,5.8,-,N/A,,Clear,280,2013-05-16 05:53:00
2:53 AM,51.1,43.0,74,29.80,10.0,Calm,Calm,-,N/A,,Clear,0,2013-05-16 06:53:00
3:53 AM,50.0,43.0,77,29.81,10.0,Calm,Calm,-,N/A,,Clear,0,2013-05-16 07:53:00
4:53 AM,48.9,43.0,80,29.82,10.0,WSW,3.5,-,N/A,,Clear,240,2013-05-16 08:53:00
5:53 AM,52.0,43.0,71,29.84,10.0,WSW,4.6,-,N/A,,Clear,240,2013-05-16 09:53:00
6:53 AM,52.0,44.1,74,29.85,10.0,WSW,3.5,-,N/A,,Clear,250,2013-05-16 10:53:00
7:53 AM,60.1,46.9,62,29.85,10.0,WSW,3.5,-,N/A,,Clear,250,2013-05-16 11:53:00
8:53 AM,64.9,46.0,50,29.87,10.0,West,8.1,-,N/A,,Clear,270,2013-05-16 12:53:00
9:53 AM,68.0,46.0,45,29.89,10.0,WNW,9.2,-,N/A,,Clear,300,2013-05-16 13:53:00
10:53 AM,71.1,46.0,41,29.90,10.0,NW,4.6,-,N/A,,Clear,310,2013-05-16 14:53:00
11:53 AM,73.9,46.0,37,29.91,10.0,NW,3.5,-,N/A,,Clear,320,2013-05-16 15:53:00
12:53 PM,75.9,45.0,33,29.90,10.0,North,8.1,-,N/A,,Clear,350,2013-05-16 16:53:00
1:53 PM,78.1,44.1,30,29.89,10.0,NNW,9.2,-,N/A,,Clear,340,2013-05-16 17:53:00
2:53 PM,79.0,44.1,29,29.89,10.0,West,8.1,-,N/A,,Clear,270,2013-05-16 18:53:00
3:53 PM,79.0,42.1,27,29.89,10.0,Calm,Calm,-,N/A,,Mostly Cloudy,0,2013-05-16 19:53:00
4:53 PM,81.0,43.0,26,29.88,10.0,NNW,10.4,-,N/A,,Scattered Clouds,340,2013-05-16 20:53:00
5:53 PM,78.1,39.9,25,29.90,10.0,NNW,12.7,-,N/A,,Partly Cloudy,330,2013-05-16 21:53:00
6:53 PM,77.0,42.1,29,29.90,10.0,North,8.1,-,N/A,,Partly Cloudy,10,2013-05-16 22:53:00
7:44 PM,71.6,44.6,38,29.93,10.0,ENE,12.7,-,N/A,,Clear,70,2013-05-16 23:44:00
7:53 PM,70.0,44.1,39,29.93,10.0,East,15.0,-,N/A,,Clear,80,2013-05-16 23:53:00
8:53 PM,63.0,42.1,46,29.97,10.0,East,11.5,-,N/A,,Clear,90,2013-05-17 00:53:00
9:53 PM,59.0,39.9,49,30.01,10.0,ENE,10.4,-,N/A,,Clear,70,2013-05-17 01:53:00
10:53 PM,55.0,37.9,53,30.04,10.0,ENE,6.9,-,N/A,,Clear,70,2013-05-17 02:53:00
11:53 PM,54.0,37.0,53,30.06,10.0,ENE,10.4,-,N/A,,Clear,70,2013-05-17 03:53:00